Location: Celina Division
(33.3022°N, 96.7580°W)
Time: 02:51:29
(UTC+00:00)

CZ-4B R/B - Visible Passes

Search period start: 29 June 2022 00:00
Search period end: 09 July 2022 00:00
Orbit: 362 x 416 km, 97.6° (Epoch: 28 June)

Date Brightness Start Highest point End Pass type
(mag) Time Alt. Az. Time Alt. Az. Time Alt. Az.
29 Jun 2.9 03:22:25 10° N 03:24:59 30° WNW 03:27:25 11° SW visible
30 Jun 2.1 02:29:02 10° NE 02:31:29 25° E 02:33:17 14° SSE visible
01 Jul 1.4 03:06:31 10° N 03:09:21 61° WNW 03:11:30 16° SSW visible
02 Jul 2.9 02:14:04 10° ENE 02:15:40 14° E 02:17:16 10° SE visible
02 Jul 4.1 03:45:24 10° NW 03:47:02 14° WNW 03:48:40 10° WSW visible
03 Jul 0.9 02:50:43 10° NNE 02:53:34 62° E 02:55:29 19° S visible
04 Jul 3.2 03:28:48 10° NNW 03:31:15 25° WNW 03:33:36 11° SW visible
05 Jul 1.9 02:35:01 10° NE 02:37:36 30° E 02:39:18 17° SSE visible
06 Jul 1.8 03:12:29 10° N 03:15:18 50° WNW 03:17:21 16° SSW visible
07 Jul 2.7 02:19:33 10° NE 02:21:29 16° E 02:22:59 12° SE visible
07 Jul 4.2 03:51:27 10° NW 03:52:47 13° WNW 03:54:07 10° W visible
08 Jul 0.8 02:56:17 10° NNE 02:59:11 75° ESE 03:00:58 21° S visible
